Location: Unspecified
(0.0000°N, 0.0000°E)
Time: 12:51:31
(UTC+00:00)

Envisat - Pass Details

Date: 02 December 2021
Orbit: 764 x 766 km, 98.2° (Epoch: 07 December)

Event Time Altitude Azimuth Distance (km) Brightness Sun altitude
Rises 05:18:36 0° 350° (N) 3,212 5.9 -7.1°
Reaches altitude 10° 05:21:13 10° 338° (NNW) 2,290 5.1 -6.5°
Maximum altitude 05:25:21 26° 282° (WNW) 1,475 3.9 -5.6°
Drops below altitude 10° 05:29:31 10° 227° (SW) 2,299 5.2 -4.6°
Sets 05:32:10 0° 214° (SW) 3,228 6.1 -4.0°
